Location: Choisy
(48.7685°N, 2.4187°E)
Time: 17:46:18
(UTC+00:00)

ISS - Visible Passes

Search period start: 27 February 2024 00:00
Search period end: 08 March 2024 00:00
Orbit: 414 x 422 km, 51.6° (Epoch: 27 February)

Date Brightness Start Highest point End Pass type
(mag) Time Alt. Az. Time Alt. Az. Time Alt. Az.
27 Feb -0.5 03:34:10 15° ENE 03:34:10 15° ENE 03:34:47 10° ENE visible
27 Feb -3.2 05:07:05 30° WNW 05:08:23 49° N 05:11:42 10° ENE visible
28 Feb -2.7 04:21:04 44° NNE 04:21:04 44° NNE 04:23:47 10° ENE visible
28 Feb -3.5 05:54:07 10° WNW 05:57:30 69° NNE 06:00:54 10° E visible
29 Feb -0.7 03:35:00 16° ENE 03:35:00 16° ENE 03:35:51 10° ENE visible
29 Feb -3.3 05:07:55 27° WNW 05:09:34 57° N 05:12:55 10° E visible
01 Mar -3.0 04:21:50 49° NNE 04:21:50 49° NNE 04:24:52 10° E visible
01 Mar -3.7 05:55:05 10° WNW 05:58:27 70° SSW 06:01:50 10° ESE visible
02 Mar -0.9 03:35:44 18° ENE 03:35:44 18° ENE 03:36:48 10° ENE visible
02 Mar -3.8 05:08:40 25° WNW 05:10:29 86° NNE 05:13:52 10° ESE visible
03 Mar -3.5 04:22:35 66° NE 04:22:35 66° NE 04:25:48 10° E visible
03 Mar -2.8 05:55:58 10° W 05:59:04 34° SW 06:02:10 10° SSE visible
04 Mar -1.0 03:36:30 19° E 03:36:30 19° E 03:37:39 10° E visible
04 Mar -3.5 05:09:26 25° W 05:11:05 50° SSW 05:14:22 10° SE visible
05 Mar -3.5 04:23:25 62° SSE 04:23:25 62° SSE 04:26:23 10° ESE visible
06 Mar -1.0 03:37:27 16° ESE 03:37:27 16° ESE 03:38:15 10° ESE visible
06 Mar -2.4 05:10:24 21° WSW 05:11:21 23° SW 05:14:06 10° SSE visible
07 Mar -2.2 04:24:33 25° S 04:24:33 25° S 04:26:23 10° SSE visible
